Weather History for Gillette, WY

Change the Weather History Date:

Wednesday, March 20, 2013

  Actual Average Record
Temperature  
Mean Temperature 36 °F 36 °F  
Max Temperature 54 °F 48 °F 75 °F (2007)
Min Temperature 17 °F 23 °F -9 °F (1965)
Degree Days  
Heating Degree Days 29 29  
Month to date heating degree days 592 632  
Since 1 July heating degree days 5715 6040  
Cooling Degree Days 0 0  
Month to date cooling degree days 0 0  
Year to date cooling degree days 0 0  
Moisture  
Dew Point 16 °F    
Average Humidity 53    
Maximum Humidity 80    
Minimum Humidity 26    
Precipitation  
Precipitation 0.00 in 0.04 in 0.30 in (1944)
Month to date precipitation 0.14 0.55  
Year to date precipitation 1.27 1.33  
Sea Level Pressure  
Sea Level Pressure 29.96 in    
Wind  
Wind Speed 16 mph (SSE)    
Max Wind Speed 31 mph    
Max Gust Speed 37 mph    
Visibility 10 miles    
Events      
T = Trace of Precipitation, MM = Missing Value Source: NWS Daily Summary

Daily Weather History Graph

Daily Weather History Graph

Search for Another Location

Airport:

Trip Planner

Search our weather history database for the weather conditions in past years. The results will help you decide how hot, cold, wet, or windy it might be!

Date:

Astronomy

Mar. 20, 2013 Rise Set
Actual Time 7:04 AM MDT 7:14 PM MDT
Civil Twilight 6:35 AM MDT 7:43 PM MDT
Nautical Twilight 6:01 AM MDT 8:18 PM MDT
Astronomical Twilight 5:27 AM MDT 8:52 PM MDT
Moon 12:40 PM MDT 2:58 AM MDT
Length of Visible Light 13h 08m
Length of Day
12h 10m
First Quarter, 60% of the Moon is Illuminated
Mar 20
First Quarter
Mar 27
Full
Apr 2
Last Quarter
Apr 10
New
Apr 18
First Quarter

Hourly Weather History & Observations

Time (MDT) Temp. Windchill Dew Point Humidity Pressure Visibility Wind Dir Wind Speed Gust Speed Precip Events Conditions
12:53 AM 18.0 °F 6.1 °F 12.9 °F 81% 30.38 in 10.0 mi SSE 10.4 mph - N/A   Clear
1:53 AM 19.0 °F 6.8 °F 12.9 °F 77% 30.35 in 10.0 mi South 11.5 mph - N/A   Clear
2:53 AM 18.0 °F 6.1 °F 12.9 °F 81% 30.32 in 10.0 mi South 10.4 mph - N/A   Clear
3:53 AM 19.0 °F 5.0 °F 12.9 °F 77% 30.27 in 10.0 mi South 15.0 mph - N/A   Clear
4:53 AM 19.9 °F 5.2 °F 12.9 °F 74% 30.24 in 10.0 mi South 17.3 mph - N/A   Clear
5:53 AM 19.9 °F 4.3 °F 12.9 °F 74% 30.22 in 10.0 mi South 19.6 mph - N/A   Clear
6:53 AM 19.9 °F 5.7 °F 12.9 °F 74% 30.19 in 10.0 mi South 16.1 mph - N/A   Clear
7:53 AM 21.9 °F 6.2 °F 14.0 °F 72% 30.19 in 10.0 mi SSE 21.9 mph 28.8 mph N/A   Clear
8:53 AM 25.0 °F 8.6 °F 16.0 °F 69% 30.14 in 10.0 mi South 27.6 mph - N/A   Clear
9:53 AM 30.0 °F 16.6 °F 18.0 °F 61% 30.10 in 10.0 mi SSE 23.0 mph 31.1 mph N/A   Clear
10:53 AM 36.0 °F 24.4 °F 17.1 °F 46% 30.02 in 10.0 mi SSE 23.0 mph 32.2 mph N/A   Clear
11:53 AM 39.0 °F 27.4 °F 16.0 °F 39% 29.97 in 10.0 mi SSE 28.8 mph 34.5 mph N/A   Clear
12:53 PM 42.1 °F 32.3 °F 16.0 °F 35% 29.91 in 10.0 mi SSE 24.2 mph 32.2 mph N/A   Clear
1:53 PM 46.0 °F 37.4 °F 16.0 °F 30% 29.85 in 10.0 mi SSE 25.3 mph 32.2 mph N/A   Clear
2:53 PM 50.0 °F - 17.1 °F 27% 29.80 in 10.0 mi SE 16.1 mph 27.6 mph N/A   Overcast
3:53 PM 51.1 °F - 17.1 °F 26% 29.75 in 10.0 mi SSE 19.6 mph - N/A   Partly Cloudy
4:53 PM 53.1 °F - 19.0 °F 26% 29.71 in 10.0 mi South 20.7 mph - N/A   Mostly Cloudy
5:53 PM 52.0 °F - 19.0 °F 27% 29.70 in 10.0 mi SSE 13.8 mph - N/A   Clear
6:53 PM 48.9 °F - 19.0 °F 31% 29.69 in 10.0 mi SE 16.1 mph - N/A   Partly Cloudy
7:53 PM 43.0 °F 36.0 °F 19.9 °F 40% 29.69 in 10.0 mi SE 13.8 mph - N/A   Clear
8:53 PM 39.9 °F 32.9 °F 19.9 °F 45% 29.68 in 10.0 mi SSE 11.5 mph - N/A   Clear
9:53 PM 35.1 °F 28.6 °F 19.0 °F 52% 29.68 in 10.0 mi SSE 8.1 mph - N/A   Clear
10:53 PM 32.0 °F 28.7 °F 19.9 °F 61% 29.66 in 10.0 mi SSE 3.5 mph - N/A   Partly Cloudy
11:53 PM 26.6 °F 20.0 °F 19.4 °F 74% 29.59 in 10.0 mi North 5.8 mph - N/A   Clear